Terminal Aerodrome Forecast
Issued by NWS Goodland, KS

Home | Current Version | Previous Version | Text Only | Print | Product List | Glossary On
Versions: 1 2 3 4 5 6 7 8 9 10 11 12 13 14 15
000
FTUS43 KGLD 271120
TAFGLD
TAF
KGLD 271120Z 2712/2812 20012KT P6SM SCT090
     FM271600 24010KT P6SM SCT060 SCT200
     FM280300 28010KT P6SM SCT150=

USA.gov is the U.S. government's official web portal to all federal, state and local government web resources and services.